This is the latest recevied weather packets stored in our database for station/object IU1WWE-10. If no packets are shown the sender has not sent any weather packets the latest 10 day(s).
| Time | Temp. | Humidity | Pressure | Rain* | Wind** | Luminosity | Snow |
|---|---|---|---|---|---|---|---|
| 1788008213 | 23.89° C | 55% | 1017 hPa | 0.25 mm | - | - | - |
| 1788007911 | 23.33° C | 54% | 1017 hPa | 0.25 mm | - | - | - |
| 1788007609 | 23.89° C | 55% | 1017.1 hPa | 0.25 mm | - | - | - |
| 1788007307 | 23.89° C | 55% | 1017.1 hPa | 0.25 mm | - | - | - |
| 1788007005 | 23.89° C | 55% | 1017.1 hPa | 0.25 mm | - | - | - |
| 1788006703 | 23.89° C | 53% | 1017.2 hPa | 0.25 mm | - | - | - |
| 1788006401 | 23.89° C | 53% | 1017.2 hPa | 0.25 mm | - | - | - |
| 1788006099 | 23.89° C | 54% | 1017.3 hPa | 0.25 mm | - | - | - |
| 1788005797 | 23.89° C | 53% | 1017.3 hPa | 0.25 mm | - | - | - |
| 1788005495 | 23.89° C | 51% | 1017.4 hPa | 0.25 mm | - | - | - |
| 1788005193 | 23.89° C | 50% | 1017.3 hPa | 0.25 mm | - | - | - |
| 1788004891 | 23.89° C | 52% | 1017.5 hPa | 0.25 mm | - | - | - |
| 1788004588 | 23.89° C | 51% | 1017.5 hPa | 0.25 mm | - | - | - |
| 1788004287 | 23.89° C | 52% | 1017.6 hPa | 0.25 mm | - | - | - |
| 1788003984 | 23.89° C | 51% | 1017.6 hPa | 0.25 mm | - | - | - |
| 1788003682 | 23.89° C | 51% | 1017.6 hPa | 0.25 mm | - | - | - |
| 1788003380 | 23.89° C | 51% | 1017.6 hPa | 0.25 mm | - | - | - |
| 1788003078 | 23.89° C | 49% | 1017.8 hPa | 0.25 mm | - | - | - |
| 1788002775 | 23.89° C | 52% | 1017.7 hPa | 0.25 mm | - | - | - |
| 1788002473 | 23.89° C | 53% | 1017.9 hPa | 0.25 mm | - | - | - |
| 1788002171 | 23.33° C | 49% | 1017.9 hPa | 0.25 mm | - | - | - |
| 1788001869 | 23.33° C | 50% | 1018 hPa | 0.25 mm | - | - | - |
| 1788001566 | 23.33° C | 55% | 1018.3 hPa | 0.25 mm | - | - | - |
| 1788001264 | 23.33° C | 50% | 1018.3 hPa | 0.25 mm | - | - | - |
| 1788000962 | 23.33° C | 48% | 1018.2 hPa | 0.25 mm | - | - | - |
* Rain since midnight (hover to see other rain measurements)
** Current wind speed in m/s (hover to see current wind gust speed)